Вернуться в каталог

SL-8 R/B

АктивенLEO
NORAD 9598·ROCKET BODY·🇷🇺 Russia

Запущен Dec 7, 1976 с Plesetsk Cosmodrome

Loading…

Ближайшие Пролёты (ближайшие 24 часа)

TLE

СвежийSource: Space-Track

Эпоха: Sep 14, 2026, 10:13 UTC

1 09598U 76118J   26257.42586646  .00000078  00000-0  82538-3 0  9991
2 09598  74.0121 251.0010 0136966 192.3553 321.7980 12.24177837224040

Отслеживайте SL-8 R/B в реальном времени с AllMySat

Download on the App Store